Location: Marcé
(47.5801°N, 0.3280°W)
Time: 07:10:02
(UTC+01:00)

Altair - Pass Details

Date: 12 December 2021
Orbit: 1501 x 1683 km, 47.2° (Epoch: 21 January)

Event Time Altitude Azimuth Distance (km) Brightness Sun altitude
Rises 14:59:02 0° 238° (WSW) 4,838 11.2 14.0°
Reaches altitude 10° 15:02:12 10° 236° (WSW) 3,830 11.0 13.7°
Maximum altitude 15:11:48 69° 156° (SSE) 1,663 8.1 12.9°
Drops below altitude 10° 15:21:04 10° 76° (ENE) 3,700 9.1 12.1°
Sets 15:24:05 0° 74° (ENE) 4,667 9.6 11.8°
